When you browse on this site, cookies collect data to enhance your experience and personalize the content and advertising you see.
Visit our Privacy Policy to learn more. By continuing to use the site, you agree to this use of cookies and data.
  • In Latvia
  • List of Countries
  • For 7 days
  • Water Temperature
  • Weather Map
  • Weather Widgets
  • user-avatar
    Login

    Hourly Weather Antwerp

    Today, 11 December, Wednesday

    Time Temperature Precipitation Wind Pressure Humidity
    00:00 +5°C° 0 mm 9 mps 757 mmHg 71%
    01:00 +5°C° 0.1 mm 8 mps 757 mmHg 75%
    02:00 +5°C° 0.1 mm 8 mps 756 mmHg 80%
    03:00 +5°C° 0.1 mm 7 mps 756 mmHg 84%
    04:00 +5°C° 0.1 mm 6 mps 756 mmHg 86%
    05:00 +6°C° 0.1 mm 5 mps 756 mmHg 87%
    06:00 +6°C° 0.1 mm 4 mps 756 mmHg 89%
    07:00 +6°C° 0.1 mm 4 mps 755 mmHg 88%
    08:00 +7°C° 0.1 mm 3 mps 755 mmHg 86%
    09:00 +7°C° 0.1 mm 3 mps 755 mmHg 85%
    10:00 +7°C° 0 mm 3 mps 754 mmHg 81%
    11:00 +7°C° 0 mm 3 mps 754 mmHg 78%
    12:00 +8°C° 0 mm 3 mps 753 mmHg 74%
    13:00 +7°C° 0 mm 3 mps 753 mmHg 76%
    14:00 +7°C° 0 mm 3 mps 753 mmHg 78%
    15:00 +7°C° 0 mm 3 mps 752 mmHg 80%
    16:00 +5°C° 0 mm 3 mps 752 mmHg 82%
    17:00 +5°C° 0 mm 3 mps 752 mmHg 84%
    18:00 +5°C° 0 mm 4 mps 752 mmHg 86%
    19:00 +4°C° 0 mm 4 mps 751 mmHg 85%
    20:00 +3°C° 0 mm 5 mps 751 mmHg 83%
    21:00 +3°C° 0 mm 5 mps 751 mmHg 82%
    22:00 +3°C° 0 mm 5 mps 751 mmHg 83%
    23:00 +3°C° 0 mm 6 mps 751 mmHg 85%

    Tomorrow, 12 December, Thursday

    Time Temperature Precipitation Wind Pressure Humidity
    00:00 +3°C° 0 mm 6 mps 751 mmHg 86%
    01:00 +3°C° 0 mm 6 mps 751 mmHg 84%
    02:00 +3°C° 0 mm 6 mps 750 mmHg 81%
    03:00 +3°C° 0 mm 6 mps 750 mmHg 78%
    04:00 +3°C° 0 mm 5 mps 750 mmHg 79%
    05:00 +2°C° 0 mm 5 mps 751 mmHg 80%
    06:00 +1°C° 0 mm 5 mps 751 mmHg 82%
    07:00 +1°C° 0 mm 5 mps 751 mmHg 81%
    08:00 +1°C° 0 mm 5 mps 751 mmHg 81%
    09:00 +1°C° 0 mm 5 mps 750 mmHg 80%
    10:00 +2°C° 0 mm 5 mps 750 mmHg 77%
    11:00 +3°C° 0 mm 5 mps 750 mmHg 74%
    12:00 +3°C° 0 mm 6 mps 749 mmHg 71%
    13:00 +3°C° 0 mm 6 mps 748 mmHg 72%
    14:00 +3°C° 0 mm 6 mps 747 mmHg 73%
    15:00 +3°C° 0 mm 6 mps 746 mmHg 74%
    16:00 +3°C° 0 mm 7 mps 744 mmHg 74%
    17:00 +1°C° 0 mm 8 mps 743 mmHg 74%
    18:00 +1°C° 0 mm 8 mps 741 mmHg 74%
    19:00 +1°C° 0.6 mm 9 mps 739 mmHg 77%
    20:00 +2°C° 0.6 mm 10 mps 736 mmHg 81%
    21:00 +2°C° 0.6 mm 11 mps 734 mmHg 85%
    22:00 +3°C° 1 mm 10 mps 733 mmHg 83%
    23:00 +5°C° 1 mm 9 mps 731 mmHg 82%

    Day after tomorrow, 13 December, Friday

    Time Temperature Precipitation Wind Pressure Humidity
    00:00 +6°C° 1 mm 8 mps 730 mmHg 81%
    01:00 +5°C° 0.3 mm 8 mps 729 mmHg 81%
    02:00 +5°C° 0.3 mm 7 mps 728 mmHg 81%
    03:00 +4°C° 0.3 mm 6 mps 728 mmHg 81%
    04:00 +4°C° 0.1 mm 6 mps 728 mmHg 81%
    05:00 +4°C° 0.1 mm 6 mps 728 mmHg 80%
    06:00 +3°C° 0.1 mm 7 mps 728 mmHg 80%
    07:00 +3°C° 0.8 mm 7 mps 729 mmHg 84%
    08:00 +3°C° 0.8 mm 7 mps 729 mmHg 88%
    09:00 +2°C° 0.8 mm 7 mps 730 mmHg 92%
    10:00 +3°C° 0.5 mm 7 mps 730 mmHg 89%
    11:00 +2°C° 0.5 mm 8 mps 731 mmHg 87%
    12:00 +4°C° 0.5 mm 8 mps 731 mmHg 85%
    13:00 +4°C° 1 mm 8 mps 732 mmHg 85%
    14:00 +5°C° 1 mm 8 mps 732 mmHg 85%
    15:00 +5°C° 1 mm 7 mps 732 mmHg 85%
    16:00 +5°C° 0.2 mm 8 mps 733 mmHg 83%
    17:00 +5°C° 0.2 mm 8 mps 733 mmHg 81%
    18:00 +6°C° 0.2 mm 8 mps 734 mmHg 78%
    19:00 +6°C° 0.1 mm 8 mps 734 mmHg 77%
    20:00 +6°C° 0.1 mm 8 mps 735 mmHg 75%
    21:00 +6°C° 0.1 mm 8 mps 736 mmHg 74%
    22:00 +5°C° 0 mm 7 mps 736 mmHg 76%
    23:00 +5°C° 0 mm 7 mps 736 mmHg 78%

    14 December, Saturday

    Time Temperature Precipitation Wind Pressure Humidity
    00:00 +4°C° 0 mm 6 mps 736 mmHg 80%
    01:00 +5°C° 0.6 mm 7 mps 736 mmHg 82%
    02:00 +6°C° 0.6 mm 9 mps 735 mmHg 83%
    03:00 +7°C° 0.6 mm 10 mps 734 mmHg 85%
    04:00 +6°C° 0.1 mm 11 mps 734 mmHg 78%
    05:00 +5°C° 0.1 mm 12 mps 734 mmHg 71%
    06:00 +5°C° 0.1 mm 13 mps 735 mmHg 65%
    07:00 +4°C° 0.1 mm 12 mps 736 mmHg 63%
    08:00 +4°C° 0.1 mm 12 mps 738 mmHg 61%
    09:00 +4°C° 0.1 mm 12 mps 739 mmHg 59%
    10:00 +4°C° 0 mm 12 mps 740 mmHg 55%
    11:00 +4°C° 0 mm 11 mps 741 mmHg 51%
    12:00 +6°C° 0 mm 11 mps 742 mmHg 47%
    13:00 +5°C° 0.1 mm 10 mps 742 mmHg 54%
    14:00 +5°C° 0.1 mm 10 mps 743 mmHg 60%
    15:00 +3°C° 0.1 mm 9 mps 743 mmHg 67%
    16:00 +3°C° 0.1 mm 9 mps 744 mmHg 63%
    17:00 +3°C° 0.1 mm 9 mps 745 mmHg 59%
    18:00 +2°C° 0.1 mm 9 mps 746 mmHg 55%
    19:00 +2°C° 0 mm 8 mps 747 mmHg 55%
    20:00 +2°C° 0 mm 8 mps 747 mmHg 55%
    21:00 +2°C° 0 mm 7 mps 748 mmHg 55%
    22:00 +2°C° 0 mm 7 mps 748 mmHg 61%
    23:00 +2°C° 0 mm 7 mps 749 mmHg 67%

    15 December, Sunday

    Time Temperature Precipitation Wind Pressure Humidity
    00:00 +2°C° 0 mm 6 mps 749 mmHg 72%
    01:00 +2°C° 0 mm 6 mps 748 mmHg 75%
    02:00 +2°C° 0 mm 6 mps 748 mmHg 77%
    03:00 +2°C° 0 mm 6 mps 747 mmHg 79%
    04:00 +2°C° 0 mm 7 mps 746 mmHg 81%
    05:00 +3°C° 0 mm 7 mps 745 mmHg 82%
    06:00 +4°C° 0 mm 8 mps 744 mmHg 83%
    07:00 +5°C° 0.1 mm 9 mps 744 mmHg 78%
    08:00 +5°C° 0.1 mm 9 mps 744 mmHg 74%
    09:00 +6°C° 0.1 mm 10 mps 744 mmHg 69%
    10:00 +6°C° 0 mm 11 mps 746 mmHg 64%
    11:00 +6°C° 0 mm 11 mps 747 mmHg 59%
    12:00 +5°C° 0 mm 12 mps 748 mmHg 54%
    13:00 +5°C° 0 mm 10 mps 749 mmHg 56%
    14:00 +5°C° 0 mm 7 mps 750 mmHg 58%
    15:00 +6°C° 0 mm 5 mps 752 mmHg 60%
    16:00 +5°C° 0 mm 5 mps 752 mmHg 63%
    17:00 +4°C° 0 mm 6 mps 752 mmHg 67%
    18:00 +4°C° 0 mm 6 mps 753 mmHg 70%
    19:00 +4°C° 0 mm 6 mps 753 mmHg 70%
    20:00 +4°C° 0 mm 6 mps 753 mmHg 70%
    21:00 +4°C° 0 mm 6 mps 754 mmHg 70%
    22:00 +4°C° 0 mm 6 mps 754 mmHg 72%
    23:00 +4°C° 0 mm 6 mps 754 mmHg 74%

    16 December, Monday

    Time Temperature Precipitation Wind Pressure Humidity
    00:00 +4°C° 0 mm 6 mps 754 mmHg 76%
    01:00 +3°C° 0 mm 5 mps 754 mmHg 78%
    02:00 +3°C° 0 mm 5 mps 754 mmHg 80%
    03:00 +3°C° 0 mm 5 mps 754 mmHg 82%
    04:00 +4°C° 0 mm 4 mps 754 mmHg 83%
    05:00 +4°C° 0 mm 4 mps 753 mmHg 85%
    06:00 +4°C° 0 mm 4 mps 753 mmHg 86%
    07:00 +5°C° 0 mm 4 mps 753 mmHg 86%
    08:00 +5°C° 0 mm 4 mps 753 mmHg 85%
    09:00 +6°C° 0 mm 4 mps 753 mmHg 85%
    10:00 +6°C° 0.1 mm 4 mps 752 mmHg 87%
    11:00 +6°C° 0.1 mm 4 mps 752 mmHg 89%
    12:00 +7°C° 0.1 mm 3 mps 751 mmHg 91%
    13:00 +7°C° 0.5 mm 3 mps 751 mmHg 92%
    14:00 +7°C° 0.5 mm 3 mps 750 mmHg 93%
    15:00 +7°C° 0.5 mm 3 mps 749 mmHg 93%
    16:00 +7°C° 0.2 mm 4 mps 749 mmHg 91%
    17:00 +8°C° 0.2 mm 5 mps 749 mmHg 88%
    18:00 +8°C° 0.2 mm 5 mps 748 mmHg 85%
    19:00 +8°C° 0.6 mm 5 mps 748 mmHg 87%
    20:00 +8°C° 0.6 mm 5 mps 748 mmHg 89%
    21:00 +8°C° 0.6 mm 5 mps 748 mmHg 91%
    22:00 +9°C° 0.7 mm 5 mps 748 mmHg 90%
    23:00 +9°C° 0.7 mm 6 mps 748 mmHg 89%
    Show more